Cotulla, TX

3:37 PM CST on November 12, 2019 (GMT -0600)
Cotulla-La Salle County

Weather History for KCOT - August, 2019

Change the Weather History Date:

Saturday, August 17, 2019

  Actual Average Record
Temperature  
Mean Temperature 92 °F -  
Max Temperature 107 °F 96 °F 107 °F (2019)
Min Temperature 79 °F 73 °F 66 °F (2004)
Cooling Degree Days 28    
Growing Degree Days 42 (Base 50)    
Moisture  
Dew Point 68 °F    
Average Humidity 53    
Maximum Humidity 84    
Minimum Humidity 18    
Precipitation  
Precipitation 0.00 in - - ()
Sea Level Pressure  
Sea Level Pressure 29.80 in    
Wind  
Wind Speed 11 mph (SE)    
Max Wind Speed 21 mph    
Max Gust Speed 26 mph    
Visibility 10 miles    
Events      
Averages and records for this station are not official NWS values.
T = Trace of Precipitation, MM = Missing Value Source: NWS Daily Summary

Daily Weather History Graph

Daily Weather History Graph

Search for Another Location

Airport or City:

Astronomy

Aug. 17, 2019 Rise Set
Actual Time 7:07 AM CDT 8:14 PM CDT
Civil Twilight 6:42 AM CDT 8:38 PM CDT
Nautical Twilight 6:13 AM CDT 9:07 PM CDT
Astronomical Twilight 5:43 AM CDT 9:37 PM CDT
Moon 9:50 PM CDT (8/17) 8:52 AM CDT (8/17)
Length of Visible Light 13h 55m
Length of Day
13h 06m
Waning Gibbous, 96% of the Moon is Illuminated
Aug 17
Waning Gibbous
Aug 23
Last Quarter
Aug 30
New
Sep 5
First Quarter
Sep 13
Full

Hourly Weather History & Observations

Time (CDT) Temp. Heat Index Dew Point Humidity Pressure Visibility Wind Dir Wind Speed Gust Speed Precip Events Conditions
12:53 AM 86.0 °F 90.7 °F 70.0 °F 59% 29.85 in 10.0 mi SSE 12.7 mph 21.9 mph N/A   Clear
1:53 AM 84.9 °F 90.7 °F 72.0 °F 65% 29.85 in 10.0 mi SE 11.5 mph - N/A   Clear
2:53 AM 82.9 °F 88.8 °F 73.0 °F 72% 29.85 in 10.0 mi SE 10.4 mph - N/A   Clear
3:53 AM 82.0 °F 87.4 °F 73.0 °F 74% 29.85 in 10.0 mi SE 9.2 mph - N/A   Clear
4:53 AM 81.0 °F 85.8 °F 73.0 °F 77% 29.84 in 10.0 mi SE 6.9 mph - N/A   Clear
5:53 AM 80.1 °F 84.5 °F 73.9 °F 81% 29.84 in 10.0 mi SE 6.9 mph - N/A   Clear
6:53 AM 79.0 °F - 73.9 °F 84% 29.84 in 9.0 mi ESE 5.8 mph - N/A   Clear
7:53 AM 79.0 °F - 73.9 °F 84% 29.84 in 8.0 mi ESE 6.9 mph - N/A   Clear
8:53 AM 82.0 °F 88.6 °F 75.0 °F 79% 29.85 in 8.0 mi SE 9.2 mph - N/A   Clear
9:40 AM 86.0 °F 93.8 °F 73.9 °F 67% 29.88 in 9.0 mi South 10.4 mph - N/A   Mostly Cloudy
9:51 AM 86.0 °F 93.4 °F 73.4 °F 66% 29.88 in 9.0 mi SSE 11.5 mph - N/A   Scattered Clouds
9:53 AM 86.0 °F 93.8 °F 73.9 °F 67% 29.86 in 9.0 mi SSE 10.4 mph - N/A   Scattered Clouds
10:53 AM 90.0 °F 97.9 °F 73.0 °F 57% 29.87 in 10.0 mi SE 9.2 mph - N/A   Clear
11:53 AM 91.9 °F 97.4 °F 70.0 °F 48% 29.86 in 10.0 mi North - - N/A   Clear
12:53 PM 98.1 °F 101.2 °F 64.9 °F 34% 29.83 in 10.0 mi Variable 5.8 mph - N/A   Clear
1:53 PM 100.9 °F 102.7 °F 62.1 °F 28% 29.80 in 10.0 mi SE 11.5 mph - N/A   Clear
2:53 PM 102.9 °F 103.0 °F 59.0 °F 23% 29.77 in 10.0 mi South 9.2 mph - N/A   Clear
3:53 PM 105.1 °F 105.0 °F 57.9 °F 21% 29.73 in 10.0 mi Variable 6.9 mph - N/A   Clear
4:53 PM 106.0 °F 105.1 °F 55.9 °F 19% 29.71 in 10.0 mi SE 10.4 mph - N/A   Clear
5:53 PM 105.1 °F 103.3 °F 54.0 °F 18% 29.70 in 10.0 mi Variable 3.5 mph - N/A   Partly Cloudy
6:53 PM 105.1 °F 104.4 °F 55.9 °F 20% 29.69 in 10.0 mi SE 12.7 mph 18.4 mph N/A   Clear
7:53 PM 102.0 °F 101.6 °F 57.9 °F 23% 29.68 in 10.0 mi SSE 15.0 mph - N/A   Clear
8:53 PM 95.0 °F 103.2 °F 72.0 °F 47% 29.71 in 10.0 mi SE 20.7 mph 26.5 mph N/A   Clear
9:53 PM 91.0 °F 98.2 °F 72.0 °F 53% 29.75 in 10.0 mi ESE 16.1 mph - N/A   Clear
10:53 PM 88.0 °F 92.9 °F 70.0 °F 55% 29.79 in 10.0 mi SE 19.6 mph 26.5 mph N/A   Clear
11:53 PM 87.1 °F 92.0 °F 70.0 °F 57% 29.81 in 10.0 mi SE 18.4 mph 23.0 mph N/A   Clear